Weather in Peterborough

Canada     44°18′53″N   78°19′37″W
temp.,
°C
wind,
m/s
gust,
m/s
humid.,
%
clouds,
%
prec.,
mm/h
press.,
hPa
HPBL,
m
6 may, thu
thu623:00+6nw51080100 0.0 1016828
02:00+4nw499061 0.1 1017346
05:00+1nw39961 0.0 1018231
08:00+4nnw48725 0.0 1019349
11:00+9nw34465 0.0 10181413
14:00+11w564497 0.0 10172173
17:00+11w57455 0.0 10151757
20:00+6wnw376497 0.0 1016148
7 may, fri
fri723:00+5wnw2557100 0.0 1016112
02:00+4nw1159100 0.0 101517
05:00+4ssw1164100 0.0 101416
08:00+3ene1385100 0.6 1014350
11:00+3nne3497100 3.4 1014462
14:00+3nne3598100 10.8 1013452
17:00+4nne3496100 2.0 1012517
20:00+4nne2595100 2.0 1011301
8 may, sat
sat823:00+4n2497100 0.1 1011294
02:00+4nnw3698100 1.9 1010502
05:00+4nnw3996100 1.1 1010643
08:00+5nw499221 1.3 1012536
11:00+11nnw586565 0.1 10121565
14:00+14wnw5746100 0.2 10112314
17:00+13wnw89573 0.2 10121442
20:00+8wnw612590 0.2 1014570
9 may, sun
sun923:00+4wnw412750 0.0 1016332
02:00+1w310850 0.0 1016225
05:00+1wnw310840 0.0 1017198
08:00+4wnw49620 0.0 1016327
11:00+10wnw58445 0.0 10161325
14:00+12w4544100 0.0 10132028
17:00+12sw2251100 0.0 10111475
20:00+9sse2368100 0.0 101045
10 may, mon
mon1023:00+6s2260100 0.0 100934
02:00+5ene2574100 0.0 1006131
05:00+4n3793100 2.1 1006216
08:00+6nnw3690100 2.9 1007269
11:00+10nnw456942 0.1 10081224
14:00+13wnw674999 0.6 10082352
17:00+11wnw89559 0.2 10111699
20:00+7wnw712640 0.2 1013737